Regional Weather Roundup
Issued by NWS Mt. Holly, NJ

Home | Current Version | Previous Version | Text Only | Print | Product List | Glossary On
Versions: 1 2 3 4 5 6 7 8 9 10 11 12 13 14 15 16 17 18 19 20 21 22 23 24 25 26 27
000
ASUS41 KPHI 222312
RWRPHI

REGIONAL WEATHER ROUNDUP
NATIONAL WEATHER SERVICE MOUNT HOLLY NJ
600 PM EST SUN JAN 22 2017

NOTE:  "FAIR" INDICATES FEW OR NO CLOUDS BELOW 12,000 FEET WITH NO
SIGNIFICANT WEATHER AND/OR OBSTRUCTIONS TO VISIBILITY.

 * = STATION DOES NOT REPORT PRECIPITATION (E.G. RAIN, SNOW, ETC.)
        OR FOG.

NJZ015>026-230000-
SOUTHERN NEW JERSEY

CITY           SKY/WX    TMP DP  RH WIND       PRES   REMARKS
POMONA         CLOUDY    48  47  96 NE13      29.69R FOG
WILDWOOD*      CLOUDY    51  50  96 NE12      29.65F FOG
MILLVILLE      CLOUDY    49  49 100 NE12      29.65F FOG
WRIGHTSTOWN    CLOUDY    46  46 100 NE15      29.68R
MOUNT HOLLY    CLOUDY    47  46  97 NE8       29.70R
TRENTON        LGT RAIN  48  47  96 NE12      29.70F FOG

$$
NJZ001>014-230000-
NORTHERN NEW JERSEY

CITY           SKY/WX    TMP DP  RH WIND       PRES   REMARKS
SUSSEX         CLOUDY    47  46  97 CALM      29.73R FOG
ANDOVER*         N/A     44  44 100 N3        29.72S
MORRISTOWN     CLOUDY    48  46  93 NE5       29.74S
NEWARK         CLOUDY    48  46  93 N12       29.73S
TETERBORO      CLOUDY    51  44  77 E7        29.73S
CALDWELL       LGT RAIN  48  45  89 E6        29.74S
SOMERVILLE     LGT RAIN  49  46  90 NE3       29.72R FOG
ALLAIRE*       CLOUDY    45  44  97 NE12G20   29.72F FOG
TOMS RIVER*    LGT RAIN  47  46  97 NE10      29.71R

$$
PAZ043-044-047-054-055-060>062-066>071-230000-
EASTERN PENNSYLVANIA

CITY           SKY/WX    TMP DP  RH WIND       PRES   REMARKS
PHILADELPHIA   CLOUDY    49  46  90 NE13G23   29.69R FOG
NORTH PHILA    CLOUDY    49  48  97 NE12      29.71R FOG
BLUE BELL*     CLOUDY    46  46 100 NE7       29.69R
DOYLESTOWN     LGT RAIN  49  47  93 VRB6      29.69F
QUAKERTOWN*    CLOUDY    48  48 100 E7        29.70S
PERKASIE*      CLOUDY    46  46 100 E8        29.70S FOG
POTTSTOWN      CLOUDY    47  47 100 NE6       29.70S FOG
LANCASTER      CLOUDY    47  47 100 E5        29.67R FOG
COATESVILLE    FOG       46  46 100 NE5G14    29.68S VSB 1/4
READING        CLOUDY    50  49  96 NE5       29.67S
ALLENTOWN      CLOUDY    50  46  86 E9        29.70S
MOUNT POCONO   FOG       45  44  97 E10       29.69S VSB 1/4
HAZLETON       CLOUDY    46  46 100 E5        29.69F
LEHIGHTON        N/A     48  46  93 CALM      29.70S
WILKES BARRE   CLOUDY    53  48  83 E5        29.68S

$$
DEZALL-MDZ008-012-015-019-020-230000-
DELAWARE AND EASTERN MARYLAND

CITY           SKY/WX    TMP DP  RH WIND       PRES   REMARKS
WILMINGTON     LGT RAIN  49  49 100 NE10      29.68R FOG
DOVER          CLOUDY    48  48 100 N10       29.63S
GEORGETOWN     CLOUDY    49  48  97 NE12      29.62F FOG
EASTON         CLOUDY    50  48  93 E12       29.66F FOG
PATUXENT       CLOUDY    47  47 100 N9        29.61S FOG
OCEAN CITY     LGT RAIN  46  46 100 NE18G26   29.61F FOG
WALLOPS ISLAND CLOUDY    50  50 100 N10       29.58F
CAMBRIDGE      CLOUDY    48  46  93 NE8       29.61S
SALISBURY      LGT RAIN  50  49  96 NE15      29.59F FOG

$$
PAZ001-021-NYZ056-072-MDZ011-DCZ001-230000-
OTHER NEARBY LOCATIONS

CITY           SKY/WX    TMP DP  RH WIND       PRES   REMARKS
HARRISBURG     CLOUDY    45  45 100 E5        29.66R FOG
STATE COLLEGE  FOG       41  41 100 CALM      29.64S VSB 1/8
WILLIAMSPORT   CLOUDY    44  43  96 CALM      29.67S FOG
BINGHAMTON     CLOUDY    49  45  86 SE8       29.68R
NEW YORK CITY  CLOUDY    46  44  93 NE9       29.75S
BALTIMORE      LGT RAIN  49  49 100 NE10      29.64R
WASHINGTON DC  LGT RAIN  50  50 100 NE9       29.63S

$$




USA.gov is the U.S. government's official web portal to all federal, state and local government web resources and services.